Regional Weather Roundup
Issued by NWS Midland/Odessa, TX

Skip options and go directly to product.
Home | Oldest Version | Previous Version | Current Version | All | Text Only | Save Text | Print | Product List | Glossary On

Skip product version selection by date and time.   
547
ASUS44 KMAF 241210
RWRMAF
MIDLAND AREA WEATHER ROUNDUP
NATIONAL WEATHER SERVICE MIDLAND TX
700 AM CDT SUN JUL 24 2016

...IN SOUTHWEST TEXAS AND SOUTHEAST NEW MEXICO...

CITY           SKY/WX    TMP DP  RH WIND       PRES   REMARKS
ALPINE         CLEAR     73  55  53 SW7       30.12S
ANDREWS        FAIR      73  58  57 CALM      30.02R
ARTESIA        CLEAR     73  54  49 NE3       30.02R
BIG SPRING     CLEAR     78  63  59 SE8       30.01R
CARLSBAD       CLEAR     73  54  51 S5        29.98R
DRYDEN           N/A     79  68  69 E10       29.94R
FORT STOCKTON  CLEAR     77  60  55 S15G21    29.96R
GUAD PASS      CLEAR     70  54  56 NE17      30.14R
HOBBS          CLEAR     70  54  56 SE3       30.05R
MARFA          CLEAR     61  52  72 N6        30.11S
MIDLAND AIRPK  CLEAR     78  60  54 S7        30.00R
MIDLAND INTL   CLEAR     78  61  55 S8        29.99R
ODESSA         CLEAR     79  60  52 S9        30.00R
PECOS          CLEAR     76  56  51 E8        29.93R
PRESIDIO       FAIR      83  57  41 N6        29.93R
SEMINOLE       CLEAR     69  55  62 CALM      30.04R
SNYDER           N/A     74  61  63 S5        29.99S
WINK           CLEAR     77  57  50 SE12      29.95R
$$
...OTHER STATIONS IN TEXAS...

CITY           SKY/WX    TMP DP  RH WIND       PRES   REMARKS
ABILENE        CLEAR     78  66  66 S8        29.97R
AMARILLO       PTCLDY    71  58  63 S10       30.05S
AUSTIN         MOCLDY    78  76  93 SE6       29.95R
BROWNSVILLE    PTCLDY    80  77  90 SE7       29.89F
CORPUS CHRISTI PTCLDY    78  75  90 E3        29.91R
DALLAS FTW     PTCLDY    81  71  71 S6        29.93R
DEL RIO        CLEAR     80  71  74 SE9       29.91R
EL PASO        PTCLDY    82  43  25 CALM      29.97R
HOUSTON INT    MOCLDY    78  76  93 CALM      29.95S
LUBBOCK        PTCLDY    74  58  57 S6        30.03R
SAN ANGELO     CLEAR     78  68  71 CALM      29.96R
SAN ANTONIO    MOCLDY    78  74  87 S7        29.96R
WACO           CLEAR     80  72  76 S9        29.94R
WICHITA FALLS  NOT AVBL
$$
...OTHER LOCATIONS IN NEW MEXICO...

CITY           SKY/WX    TMP DP  RH WIND       PRES   REMARKS
ALAMAGORDO     CLEAR     66  39  37 SE5       30.01S
ALBUQUERQUE    CLOUDY    78  50  37 SE6       30.10F
CANNON AFB     CLEAR     73  55  53 W2        30.09R
CLOVIS         CLEAR     66  54  63 CALM      30.09S
HOLLOMAN AFB   NOT AVBL
ROSWELL        CLEAR     71  49  45 NE3       30.02R
RUIDOSO          N/A     64  39  39 CALM      30.27R
SANTA FE       CLOUDY    67  57  70 N13       30.21S
TRUTH OR CONSE CLEAR     74  47  38 NW8       30.07R
TUCUMCARI      CLOUDY    72  49  44 W3        30.06R
$$

USA.gov is the U.S. government's official web portal to all federal, state and local government web resources and services.